Content
SEND FEEDBACK

Daily
Averages
Monthly
Summary
Lebanon

ASH SHUWAYFAT, LEBANON


Home > Middle East > Lebanon
Elevation: 62 feet     Latitude: 33 49N     Longitude: 035 28E

WEATHER
 
SELECT A DAY
Number of Records: 164,653;   Date Range: 7/1/96 - 8/31/14
 
SHARE

PRINT THIS DATA

[ ← Previous Day ]
WEATHER ALMANAC - JANUARY 31, 2013
[ Next Day → ]
[ °C ]   °F
Weather ElementAverageHighLow
Temperature54.7 °F59 °F (10:00 am)50 °F (3:00 am)
Dewpoint42.4 °F46 °F (2:00 am)41 °F (5:00 am)
Humidity62.6 %82 % (3:00 am)50 % (2:00 pm)
Barometer29.71 in29.83 in (11:00 pm)29.64 in (8:00 am)
Wind Speed10 mph20.7 mph (1:00 pm)
Weather ElementAverage
Visibility5 mi
Wind DirectionS (178.5 °)

Weather ElementTotal
Precipitation---
Heating Degree Days10.5 (Base 65)
Growing Degree Days4.5 (Base 50)
Averaged from 27 records on January 31, 2013
WEATHER CONDITIONS BREAKOUT
WIND DIRECTION BREAKOUT
WEATHER BY HOUR - JANUARY 31, 2013
[ °C ]   °F
Local TimeTemperatureDewpointHumidityBarometerVisibilityWind DirectionWind SpeedGust SpeedPrecipitationEventsConditions
1:00 AM51.8 °F42.8 °F71 %29.74 in5.0 miSSE (160°)9.2 mphRainLight Rain
2:00 AM51.0 °F46.0 °F77 %29.70 in5.0 miSouth (180°)4.6 mphRain-ThunderstormThunderstorms and Rain
2:00 AM51.8 °F44.6 °F76 %29.71 in5.0 miSouth (170°)10.4 mphLight Drizzle
3:00 AM50.0 °F44.6 °F82 %29.71 in5.0 miSouth (180°)12.7 mphRainLight Rain
4:00 AM51.8 °F42.8 °F71 %29.68 in5.0 miSSE (150°)9.2 mphRainRain
5:00 AM51.8 °F41.0 °F67 %29.68 in5.0 miSSE (160°)8.1 mphMostly Cloudy
6:00 AM51.8 °F42.8 °F71 %29.65 in5.0 miSouth (170°)10.4 mphRainRain
7:00 AM53.6 °F41.0 °F62 %29.65 in5.0 miESE (120°)4.6 mphMostly Cloudy
8:00 AM54.0 °F42.0 °F54 %29.64 in5.0 miSouth (180°)4.6 mphPartly Cloudy
8:00 AM53.6 °F41.0 °F62 %29.65 in5.0 miSouth (170°)11.5 mphMostly Cloudy
9:00 AM55.4 °F41.0 °F58 %29.68 in5.0 miSouth (180°)11.5 mphMostly Cloudy
10:00 AM59.0 °F42.8 °F55 %29.68 in5.0 miSouth (180°)10.4 mphMostly Cloudy
11:00 AM59.0 °F41.0 °F51 %29.68 in5.0 miSSW (200°)10.4 mphMostly Cloudy
12:00 PM59.0 °F41.0 °F51 %29.68 in5.0 miSouth (180°)16.1 mphMostly Cloudy
1:00 PM59.0 °F42.8 °F55 %29.68 in5.0 miSSW (210°)20.7 mphScattered Clouds
2:00 PM58.0 °F44.0 °F50 %29.67 in5.0 miSW (220°)11.5 mphPartly Cloudy
2:00 PM59.0 °F42.8 °F55 %29.68 in5.0 miSSW (210°)17.3 mphMostly Cloudy
3:00 PM57.2 °F42.8 °F59 %29.71 in5.0 miSSW (200°)16.1 mphMostly Cloudy
4:00 PM57.2 °F42.8 °F59 %29.71 in5.0 miSSW (200°)10.4 mphRainRain
5:00 PM55.4 °F42.8 °F63 %29.74 in5.0 miSSW (200°)11.5 mphMostly Cloudy
6:00 PM53.6 °F42.8 °F67 %29.77 in5.0 miSouth (170°)9.2 mphScattered Clouds
7:00 PM53.6 °F41.0 °F62 %29.77 in5.0 miSouth (180°)11.5 mphScattered Clouds
8:00 PM53.0 °F42.0 °F57 %29.77 in5.0 miSouth (170°)3.5 mphScattered Clouds
8:00 PM53.6 °F41.0 °F62 %29.80 in5.0 miSouth (170°)6.9 mphScattered Clouds
9:00 PM55.4 °F41.0 °F58 %29.80 in3.7 miSSE (150°)5.8 mphRainRain
10:00 PM53.6 °F42.8 °F67 %29.80 in5.0 miSouth (170°)4.6 mphRainLight Rain
11:00 PM53.6 °F42.8 °F67 %29.83 in5.0 miSouth (190°)8.1 mphScattered Clouds
Hourly data recorded from OLBA, located miles away from Ash Shuwayfat, Lebanon







STORIES FROM OUR PARTNERS